Flag for Poland Weather past 2 weeks in Dąbrowa Górnicza, Poland

Now
48 °F

Passing clouds.


Feels Like: 46 °F
Forecast: 41 / 66 °F
Wind: 5 mph from East

Location: Katowice Airport


UV Index: 3 (Moderate)

Visibility: N/A


Pressure: 29.86 "Hg

Humidity: 87%

Dew point: 45 °F

Location of Dąbrowa GórniczaLocation

Historic Weather in Dąbrowa Górnicza

°F

Dąbrowa Górnicza temperature yesterday

Maximum temperature yesterday: 61 °F (at 3:30 PM)
Minimum temperature yesterday: 46 °F (at 12:30 AM)
Average temperature yesterday: 53 °F

Past Weeks' High & Low Weather Summary

 TemperatureHumidityPressure
High70 °F (Apr 8, 1:30 PM)100% (Apr 10, 5:00 AM)30.33 "Hg (Apr 10, 5:00 AM)
Low28 °F (Apr 13, 5:30 AM)31% (Apr 18, 1:30 PM)29.68 "Hg (Apr 14, 11:30 AM)
Average46 °F77%29.98 "Hg
* Reported Apr 5 11:00 PM — Apr 20 11:00 PM, Dąbrowa Górnicza, Weather by CustomWeather, © 2014

Note: Actual official high and low records may vary slightly from our data, if they occured in-between our weather recording intervals... More about our weather records

Advertising

Historic Weather Conditions — Data for Previous 24 hours

 ConditionsComfort  
Time TempWeatherWind HumidityBarometerVisibility
11:00 PM
Apr 20
52 °FPassing clouds.6 mph77%29.86 "HgN/A
10:30 PM52 °FPassing clouds.9 mph77%29.86 "HgN/A
10:00 PM52 °FPassing clouds.8 mph77%29.86 "HgN/A
9:30 PM54 °FPartly cloudy.7 mph77%29.86 "HgN/A
9:00 PM52 °FPassing clouds.8 mph77%29.86 "HgN/A
8:30 PM54 °FBroken clouds.8 mph77%29.86 "HgN/A
8:00 PM55 °FThunderstorms. Scattered clouds.9 mph67%29.86 "HgN/A
7:30 PM57 °FPassing clouds.17 mph63%29.83 "HgN/A
7:00 PM57 °FPassing clouds.16 mph67%29.83 "HgN/A
6:30 PM57 °FScattered clouds.14 mph67%29.83 "HgN/A
6:00 PM59 °FPassing clouds.15 mph63%29.83 "HgN/A
5:30 PM59 °FPassing clouds.13 mph59%29.83 "HgN/A
5:00 PM61 °FPassing clouds.18 mph52%29.83 "HgN/A
4:30 PM61 °FPassing clouds.18 mph48%29.86 "HgN/A
4:00 PM61 °FPassing clouds.17 mph52%29.86 "HgN/A
3:30 PM61 °FPassing clouds.16 mph55%29.86 "HgN/A
3:00 PM59 °FPassing clouds.18 mph59%29.89 "HgN/A
2:30 PM59 °FPassing clouds.16 mph63%29.89 "HgN/A
2:00 PM59 °FPassing clouds.16 mph59%29.89 "HgN/A
1:30 PM59 °FPassing clouds.16 mph51%29.89 "HgN/A
1:00 PM59 °FPassing clouds.16 mph48%29.89 "HgN/A
12:30 PM59 °FPassing clouds.13 mph55%29.89 "HgN/A
12:00 PM59 °FPassing clouds.12 mph59%29.92 "HgN/A
11:30 AM57 °FPassing clouds.13 mph67%29.92 "HgN/A
11:00 AM55 °FPassing clouds.10 mph72%29.92 "HgN/A
10:30 AM54 °FPassing clouds.13 mph77%29.92 "HgN/A
10:00 AM52 °FPassing clouds.12 mph77%29.92 "HgN/A
9:30 AM52 °FPartly sunny.10 mph77%29.92 "HgN/A
9:00 AM50 °FPartly sunny.12 mph82%29.92 "HgN/A
8:30 AM48 °FBroken clouds.12 mph87%29.92 "HgN/A
8:00 AM48 °FBroken clouds.12 mph87%29.89 "HgN/A
7:30 AM48 °FBroken clouds.15 mph87%29.89 "HgN/A
7:00 AM48 °FPartly sunny.12 mph94%29.89 "HgN/A
6:30 AM48 °FPassing clouds.10 mph94%29.89 "HgN/A
6:00 AM48 °FPassing clouds.10 mph87%29.89 "HgN/A
5:30 AM48 °FPassing clouds.9 mph87%29.89 "HgN/A
5:00 AM46 °FPassing clouds.9 mph93%29.89 "HgN/A
4:30 AM46 °FPassing clouds.9 mph93%29.89 "HgN/A
4:00 AM46 °FPassing clouds.7 mph100%29.89 "HgN/A
3:30 AM48 °FPassing clouds.6 mph94%29.89 "HgN/A
3:00 AM48 °FPassing clouds.8 mph94%29.92 "HgN/A
2:30 AM46 °FClear.9 mph93%29.89 "Hg10 mi
2:00 AM46 °FPassing clouds.5 mph100%29.92 "HgN/A
1:30 AM46 °FClear.7 mph93%29.92 "Hg10 mi
1:00 AM46 °FClear.6 mph93%29.92 "Hg10 mi
12:30 AM46 °FPassing clouds.8 mph100%29.92 "HgN/A
12:00 AM48 °FPassing clouds.9 mph94%29.92 "HgN/A
Weather by CustomWeather, © 2014

See weather overview